Theta_e
327 327 317 309 305 303 303 303 303 303 303 304 304 304 304 304 304 304 304 303 305 309 312 311 311 311 310 308 307 307 305 304 302 302 303 303 303 303 304 317 322 325 321
327 324 313 306 303 303 303 303 303 303 303 304 304 304 304 304 304 303 303 302 306 309 310 311 310 310 307 305 305 305 303 304 301 301 301 301 302 302 302 323 326 327 325
325 317 309 304 303 303 303 303 303 304 304 304 304 304 304 304 303 302 302 303 305 309 309 308 307 305 302 300 301 302 300 300 300 300 300 300 301 303 319 320 323 327 328
321 315 307 303 303 303 303 303 303 304 304 305 305 304 303 303 302 303 302 304 304 306 306 307 304 300 298 298 298 299 298 299 299 299 299 299 303 312 320 320 321 324 327
320 314 306 304 303 303 303 303 303 304 305 306 305 303 302 301 300 301 301 302 303 305 304 304 301 298 298 297 297 297 297 297 298 298 298 299 302 313 316 316 317 320 323
321 310 306 304 304 304 304 304 304 305 306 305 303 302 301 300 299 299 299 299 300 301 303 302 299 297 296 296 296 296 296 296 297 297 297 298 299 306 311 314 314 317 318
315 310 306 305 304 304 305 305 306 306 305 304 302 301 300 299 298 297 296 298 297 299 299 299 297 295 295 295 295 295 295 296 296 296 296 296 297 299 302 309 309 310 316
318 311 307 305 305 305 306 306 306 306 305 304 302 301 300 298 297 296 295 295 295 295 295 296 295 294 294 294 294 294 294 295 295 295 295 295 296 299 306 309 308 306 310
316 311 308 306 306 306 306 305 305 305 304 303 301 300 299 298 296 295 294 294 294 294 293 293 293 292 293 293 293 293 293 293 294 294 295 295 295 300 306 307 307 307 305
315 310 308 306 305 306 305 305 304 303 302 301 300 299 298 297 295 294 294 293 293 292 292 292 292 292 292 292 292 292 292 292 292 293 293 294 294 303 305 306 306 306 306
314 310 308 306 305 305 305 304 303 302 301 300 299 298 298 297 295 294 293 292 292 292 292 292 291 291 291 291 292 292 292 292 292 292 293 293 294 302 305 305 304 305 305
315 313 308 306 305 305 304 303 302 301 301 300 299 298 297 296 294 293 292 292 292 291 291 291 291 291 291 291 291 292 292 292 292 292 293 293 298 301 303 303 303 304 305
316 312 308 306 305 304 304 303 302 301 300 299 299 298 297 295 294 293 292 292 291 291 290 290 290 290 290 290 290 291 291 292 292 292 294 298 301 302 302 302 303 303 304
316 311 309 306 305 304 303 302 301 300 300 299 298 297 296 295 294 293 292 291 291 290 290 290 290 289 289 289 290 290 290 291 292 293 294 294 296 298 301 302 301 301 302
315 310 308 306 305 303 302 301 300 300 299 298 297 297 296 295 293 292 291 291 291 290 290 289 289 289 288 289 289 289 290 291 293 294 294 294 294 294 294 298 299 300 301
313 309 308 306 304 303 302 301 300 300 299 298 297 296 296 294 293 292 291 291 290 290 289 289 288 288 288 288 288 289 289 290 292 293 294 294 294 294 294 294 294 297 298
311 309 307 305 304 302 301 300 300 299 298 297 296 295 294 294 292 292 291 291 290 289 288 288 287 287 287 287 287 288 289 289 291 292 293 293 293 293 293 293 293 293 293
310 308 306 305 303 302 301 301 299 298 297 296 295 295 294 293 292 291 291 290 289 288 287 287 286 286 286 287 287 288 288 289 290 291 291 291 292 292 292 292 293 293 292
309 307 306 304 303 302 301 300 299 297 296 295 295 294 293 292 292 291 290 290 288 287 286 286 286 285 286 286 287 288 288 288 289 289 289 289 290 290 290 290 291 291 291
307 306 305 305 303 302 300 299 298 296 296 295 294 293 292 291 291 290 289 288 287 286 285 285 285 285 286 288 288 288 288 288 288 288 288 288 288 288 288 288 289 290 290
306 305 305 305 303 301 299 298 297 296 295 294 293 292 291 290 290 289 288 286 285 285 284 284 285 287 287 286 287 288 288 288 287 287 287 287 286 286 286 286 287 288 290
306 305 305 303 302 300 298 297 296 295 294 293 292 291 290 289 288 287 286 285 285 284 285 286 286 286 286 286 286 287 288 288 287 287 286 286 286 285 285 286 286 288 289
305 304 304 303 301 299 298 297 295 294 293 292 290 289 288 287 286 285 285 285 284 285 286 286 285 285 285 285 285 285 287 288 286 287 286 286 286 285 285 285 286 288 288
304 304 304 302 300 299 298 295 293 292 291 290 288 288 287 286 285 285 284 284 285 286 286 285 285 284 284 285 284 285 284 284 285 286 286 286 286 285 285 285 286 286 287
304 303 302 301 301 299 295 294 294 291 289 288 287 287 286 286 285 285 284 284 286 286 285 285 284 284 283 284 282 282 283 285 285 285 285 286 286 286 285 285 285 286 286
303 302 301 301 300 295 294 295 292 289 288 287 287 286 286 285 285 284 284 285 286 285 285 284 284 284 283 283 283 283 283 283 285 285 285 285 285 286 285 285 285 285 285
Wind_Speed
20 14 7 3 1 3 4 4 6 9 10 11 12 13 13 13 14 13 14 14 14 14 15 15 15 15 14 14 14 14 15 15 15 13 14 14 13 13 14 12 14 12 16
19 13 7 3 2 3 3 6 8 9 10 11 12 12 12 13 13 14 14 14 13 14 14 15 15 15 15 13 14 14 14 17 18 14 12 10 10 10 7 7 8 12 16
15 11 7 3 3 3 4 6 8 9 9 11 11 12 13 14 15 15 14 14 14 14 15 14 14 15 15 14 13 13 14 17 18 16 11 9 5 4 3 8 11 9 9
14 9 6 4 3 4 5 6 8 8 9 10 11 13 15 17 17 17 17 16 15 15 15 15 16 14 13 14 14 15 15 16 16 16 13 7 0 4 4 8 9 11 9
14 9 6 5 4 5 6 6 7 8 8 10 12 14 16 17 17 16 16 16 16 16 16 15 16 16 17 16 16 16 16 17 16 14 12 8 4 5 5 8 9 11 12
13 9 6 5 5 5 5 6 6 7 9 12 14 16 16 16 16 16 16 16 15 15 15 16 18 19 20 19 17 17 18 17 17 15 13 10 8 11 8 7 12 12 14
14 9 6 5 4 4 5 4 6 8 11 14 16 17 17 17 15 17 17 16 17 15 16 16 18 18 18 17 17 18 18 17 16 13 12 11 11 12 12 11 15 19 18
11 9 6 4 3 2 4 5 8 10 13 15 17 18 18 17 17 17 16 17 18 17 17 16 17 19 20 19 18 18 18 17 15 15 13 11 12 10 11 10 13 15 19
12 9 7 4 3 2 3 6 9 12 14 16 17 17 18 18 17 17 17 16 17 16 17 18 20 20 20 20 19 19 19 18 16 14 13 12 10 12 11 10 13 14 15
14 10 7 4 2 0 4 7 11 13 15 15 16 17 18 17 17 17 17 17 18 18 19 19 20 20 20 19 19 19 19 17 15 12 11 10 10 12 10 10 11 13 14
17 12 8 5 3 1 3 7 11 12 12 14 16 18 18 18 18 18 19 18 19 19 19 20 21 21 20 19 18 19 18 17 15 12 11 10 9 12 10 9 10 12 13
19 14 10 6 3 2 3 7 9 10 12 14 16 18 19 20 20 19 19 19 19 19 19 20 21 20 20 20 20 18 17 16 13 11 9 9 10 10 8 8 10 12 12
18 14 9 6 5 2 3 5 7 8 11 14 16 18 19 20 21 20 20 20 21 21 22 22 22 22 21 21 20 19 17 15 13 10 7 8 7 8 6 8 9 10 12
18 14 10 8 5 3 3 5 6 8 11 13 16 18 19 21 21 21 21 21 22 23 23 23 23 23 21 20 19 18 16 14 11 9 9 8 5 3 6 8 9 11 13
18 15 11 8 5 3 3 4 6 8 10 13 15 18 20 21 22 21 20 21 22 23 25 25 24 23 22 21 19 17 15 12 10 9 10 11 13 12 10 9 9 11 13
19 16 12 9 5 2 2 4 6 8 10 13 15 18 20 21 21 20 20 22 23 24 25 25 24 23 22 21 20 18 15 12 10 9 10 13 14 15 15 13 13 13 15
20 16 12 7 4 2 2 4 6 8 10 12 15 17 19 21 21 21 22 23 24 26 26 25 24 23 22 21 20 18 15 13 12 12 12 12 13 14 15 16 16 16 17
20 16 11 6 4 2 3 5 6 8 10 12 14 16 18 20 20 21 22 24 26 28 27 26 25 24 24 23 21 20 17 13 12 13 13 14 15 16 16 16 17 18 19
19 14 10 6 3 2 3 5 7 8 9 11 14 16 17 18 19 20 22 24 27 28 26 25 24 24 24 23 20 18 17 13 12 12 13 15 17 19 20 19 18 19 21
19 14 9 5 2 2 4 5 7 7 9 10 13 14 15 16 17 19 22 25 26 24 24 24 24 23 22 23 21 17 14 13 14 14 16 18 19 20 20 20 18 18 19
19 14 8 3 1 2 5 6 7 6 8 11 13 14 14 15 17 19 22 23 23 22 23 24 25 25 20 21 17 18 9 11 11 8 15 12 13 15 17 17 15 14 14
18 12 8 4 1 3 5 6 6 7 10 12 14 13 14 15 18 20 21 21 21 20 20 23 24 22 17 17 16 13 10 9 4 16 8 10 15 15 13 13 12 12 11
17 12 7 3 2 3 5 7 7 9 12 13 12 13 15 17 19 20 20 20 19 20 22 23 21 20 19 16 14 8 9 6 22 4 11 13 13 15 13 12 10 11 10
17 11 6 4 3 5 7 7 8 9 10 11 12 14 16 18 18 19 19 19 18 21 23 22 21 21 18 16 14 7 10 12 9 14 11 17 17 16 14 13 10 9 11
15 10 6 5 6 8 6 9 11 12 12 12 13 14 16 17 17 17 17 17 19 23 24 22 22 22 17 16 12 13 11 9 10 12 23 21 18 17 13 14 9 9 9
15 9 6 5 8 7 10 14 15 13 12 12 13 15 17 17 16 17 16 17 21 24 24 21 23 21 17 15 12 10 11 10 12 14 18 21 22 18 18 9 10 10 10
Wind_Direction
186 208 185 165 95 43 41 38 35 31 28 23 19 15 10 5 1 360 356 358 2 12 16 12 8 6 0 357 353 349 339 324 313 307 296 287 277 267 260 260 262 272 261
180 182 167 153 88 72 57 46 39 36 26 18 16 14 10 8 6 5 2 5 11 16 13 11 8 2 356 353 352 342 338 326 327 325 314 303 285 279 263 281 272 270 263
169 163 158 141 121 106 72 55 50 39 24 20 17 15 10 9 11 9 9 11 13 11 8 7 357 354 354 350 345 338 331 322 324 325 321 313 309 275 318 284 246 244 255
164 162 161 154 149 103 81 67 53 38 25 18 13 11 9 9 12 9 9 2 8 5 5 4 355 352 346 339 338 337 334 325 328 325 324 324 276 148 307 283 268 258 265
165 166 166 160 136 99 89 74 52 35 21 16 13 11 11 12 8 2 1 357 6 8 2 359 353 348 345 341 334 333 330 329 333 325 317 312 235 223 352 310 289 256 254
169 165 162 149 127 106 92 77 46 25 16 16 15 12 13 10 3 359 359 358 3 2 3 355 349 347 344 342 337 329 329 331 336 333 325 307 277 250 270 284 289 271 257
167 163 159 150 127 104 100 71 29 15 16 16 13 9 12 7 1 2 1 356 357 1 357 355 347 343 340 337 333 329 328 329 330 328 322 312 296 278 276 321 286 266 252
175 167 162 154 130 116 94 33 12 8 10 9 11 9 8 7 2 0 358 352 351 348 347 347 340 341 342 338 333 327 325 327 326 322 319 309 297 294 321 327 326 304 265
178 179 174 151 113 81 48 15 9 4 8 9 8 6 6 7 2 356 357 349 347 346 344 344 343 345 342 338 335 331 331 331 327 321 315 310 295 302 324 322 320 327 309
183 186 182 168 160 88 10 0 2 4 5 6 6 9 11 7 2 358 355 352 348 349 346 344 342 343 343 342 338 337 336 334 329 324 316 303 297 328 317 325 319 329 333
186 189 186 187 194 294 351 352 358 358 4 6 9 12 9 6 4 0 356 354 349 349 347 346 345 345 345 343 342 340 340 339 334 328 324 312 304 328 334 311 321 331 331
190 191 189 192 213 270 330 345 348 354 359 4 9 8 9 10 7 4 357 354 351 352 352 349 346 346 346 346 344 343 342 341 337 331 331 327 333 330 327 321 331 323 321
191 190 190 199 210 244 312 329 337 347 357 3 3 6 10 10 7 2 360 359 359 356 355 351 349 350 350 348 346 343 344 344 342 334 323 352 8 355 340 333 319 327 325
190 189 193 198 207 236 290 315 336 348 352 355 2 5 7 7 5 4 3 2 360 358 356 355 352 349 347 345 342 339 338 336 330 320 299 299 277 297 341 334 335 325 323
192 190 192 193 199 233 291 316 332 338 343 351 357 359 1 3 4 5 3 1 358 358 356 353 350 347 346 344 342 338 331 322 312 299 290 293 298 295 292 324 321 323 329
190 190 190 189 193 226 291 314 323 328 337 346 351 352 356 0 1 1 359 357 356 356 353 350 347 345 345 345 340 335 326 312 294 280 272 278 286 292 299 297 307 320 325
186 189 189 187 190 214 278 302 309 321 335 342 345 350 355 353 354 355 355 353 353 351 349 349 345 346 347 345 340 335 323 302 284 278 275 277 280 285 292 294 300 306 313
189 186 184 185 189 216 277 304 316 322 332 337 342 348 347 346 348 349 348 348 348 346 347 348 348 347 345 346 343 336 326 300 280 278 284 290 293 293 292 291 294 299 307
186 184 181 178 193 257 310 316 320 323 327 333 338 341 340 341 344 343 343 343 343 343 346 348 349 349 346 346 343 334 321 292 277 282 291 297 298 299 298 294 291 294 297
182 180 177 179 210 294 321 328 324 321 324 329 334 335 338 337 339 339 339 340 341 344 346 347 351 351 346 342 342 338 318 299 288 289 300 303 301 298 299 300 297 288 290
179 178 170 178 227 314 335 332 326 319 324 329 332 335 337 337 337 337 338 340 344 348 348 349 348 345 350 346 343 336 327 318 300 306 311 319 320 324 313 307 302 292 293
178 170 167 165 250 346 345 338 328 329 332 333 335 336 337 340 339 340 342 346 349 351 352 350 346 347 347 345 339 333 331 328 287 321 324 317 329 332 327 317 300 291 294
170 163 159 147 56 17 4 347 344 346 337 335 333 337 342 343 342 344 345 348 354 355 352 350 348 349 336 339 335 325 332 320 321 310 324 334 332 335 328 324 307 295 300
160 151 148 109 63 27 8 5 3 346 335 336 344 346 344 343 343 345 347 352 358 354 351 350 346 341 334 330 331 313 302 294 313 321 321 325 331 330 325 321 311 301 296
153 151 123 83 35 28 25 26 3 356 351 352 351 346 344 345 343 346 350 355 356 352 350 346 344 341 337 332 324 318 319 307 288 289 310 323 325 324 326 323 309 303 304
150 137 107 51 33 37 26 14 9 355 359 354 349 348 351 350 350 350 353 353 354 351 349 345 343 340 338 339 328 322 312 302 300 300 303 312 315 321 320 314 307 300 301